Погода в Урицке

Погода в Урицке : погода сейчас, прогноз погоды и архив. Всё, что Вы хотите узнать о погоде в Урицке!

Поиск расширенной информации на нашем сайте:

Другие новости

Новости СМИ2

Главная страница сайта

Новости сайта

03.07.2017

Напоминаем, что на нашем специализированном сайте Метеоцентр.Азия вы можете получить высокодетализированные автоматические прогнозы погоды по пунктам России, СНГ и мира в авиационном формате (включающие направление и скорость ветра, видимость, явления погоды, количество и форму облачности, нижнюю и верхнюю границу облачности).


Погода в Урицке - сегодня

Время (UTC), дата Ветер
(°,м/с) 
Видим.   Явления Облачность Т
(°С)
Тd
(°С)
f(%) Тe
(°С)
Pmin
(гПа)
dP
(гПа)
Po
(мм)
O2
(г/м3)
Тmin Tmax R s Состояние
почвы
09 20.10.17 250 (З) 11  20000 м    4/4 600 м 
[Cu med, cong]
+8.5 +0.4 57 +5  1007.8  0.1  736  288           
12 20.10.17 250 (З) 20000 м    8/8 600 м 
[Sc]
+7.3 -0.2 59 +5  1008.4  0.5  737  289           
15 20.10.17 220 (ЮЗ) н/о    9/9 600 м 
[Sc]
+4.7 -1.6 64 +2  1009  0.1  737  292    +8.8       
18 20.10.17 240 (ЮЗ) н/о    ясно 
+2.7 -2.5 69 +1  1009.2  0.1  737  294    +8.8       
21 20.10.17 230 (ЮЗ) н/о    ясно 
-1.1 -5.8 70 -4  1009.5  -0.1  737  299           
00 21.10.17 220 (ЮЗ) н/о    ясно 
-3 -6.8 75 -7  1010  0.4  737  301           
06 21.10.17 270 (З) 20000 м    8/8 600 м 
[Sc]
+0.8 -5.7 62 -3  1011.2  0.8  738  297  -3.4         
09 21.10.17 250 (З) 20000 м    8/8 600 м 
[Cu med, cong]
+1.9 -6.2 55 -2  1010.9  -0.2  738  296           
12 21.10.17 280 (З) 20000 м    9/9 600 м 
[Sc]
+1.1 -6.5 57 -3  1011.1  0.2  738  297           
15 21.10.17 260 (З) н/о    10/10 600 м 
[Sc]
-0.7 -7.5 60 -3  1012.2  0.9  739  299    +2.2       
18 21.10.17 250 (З) н/о    8/8 600 м 
[Sc]
-1.1 -7.7 61 -4  1012.6  0.3  739  300    +2.2       
21 21.10.17 250 (З) н/о    10/10 600 м 
[Sc]
-2.2 -7.3 68 -4  1013.3  0.6  740  301           
00 22.10.17 230 (ЮЗ) н/о    10/10 600 м 
[Sc]
-2.8 -6.9 73 -5  1014.4  1.1  740  302           
03 22.10.17 240 (ЮЗ) 20000 м    8/8 600 м 
[Sc]
-3 -6.4 77 -4  1015.7  741  303           
06 22.10.17 220 (ЮЗ) 20000 м    8/8 600 м 
[Sc]
+0.4 -5.8 63 -1  1016.9  1.6  742  299  -3.2         
09 22.10.17 270 (З) 20000 м    9/9 1000 м 
[Sc]
+1 -7.9 51 -1  1017.6  0.7  743  299           
12 22.10.17 240 (ЮЗ) 20000 м    8/8 1000 м 
[Sc]
+0.9 -8.1 51 1018.3  0.7  743  299           
15 22.10.17 240 (ЮЗ) н/о    5/5 600 м 
[Sc]
-2.2 -8.5 62 -3  1019.7  1.1  744  303    +1.4       
18 22.10.17 180 (Ю) н/о    ясно 
-4.8 -9.2 71 -4  1020.5  0.4  745  306    +1.4       
21 22.10.17 тихо ()   н/о    ясно 
-5.4 -9.2 75 -5  1020  -0.4  744  307           
00 23.10.17 140 (ЮВ) н/о    5/5 600 м 
[Sc]
-3.6 -7.6 74 -5  1019.1  -0.7  744  304           
03 23.10.17 100 (В) 20000 м    10/10 600 м 
[Sc]
-2.2 -7.3 68 -4  1017.7  -1.3  743  302           
06 23.10.17 070 (В) 4000 м  слаб. ливневой снег  10/10 300 м кучево-дожд. 
[Cb calv]
-1.5 -4.9 78 -5  1015.7  -1.9  741  301           
09 23.10.17 050 (СВ) 10  4000 м  слаб. ливневой снег  10/10 300 м кучево-дожд. 
[Cb calv]
-1.4 -3.4 86 -7  1011.4  -4.1  738  299           
12 23.10.17 040 (СВ) 15-15{18}  4000 м  слаб. ливневой снег  10/10 300 м кучево-дожд. 
[Cb calv]
-1.3 -2.7 90 -8  1007.4  -3.9  735  298           
Время (UTC), дата Ветер
(°,м/с) 
Видим.   Явления Облачность Т
(°С)
Тd
(°С)
f(%) Тe
(°С)
Pmin
(гПа)
dP
(гПа)
Po
(мм)
O2
(г/м3)
Тmin Tmax R s Состояние
почвы

Для получения пояснительной информации подведите курсор к названию столбца.

ПОГОДА в Урицке - архив

Всё, что Вы хотите узнать о погоде в Урицке - удобно и подробно!

Выберите нужную дату (начиная с 1 января 2015* года) и нажмите кнопку "Найти".
Будут отображены архивные сводки погоды по пункту Урицк, начиная с указанной даты.


Отображать данные в формате CSV (для использования в таблицах Excel)


Внимание! Наш архив погоды предназначен исключительно для личного некоммерческого использования в познавательных целях. Если Вам необходимы официальные справки о состоянии погоды (для производственных, юридических, коммерческих и т.п. целей), обращайтесь в органы Росгидромета.

*Примечание: данная дата относится к архиву по метеостанциям СССР (Россия, СНГ, Балтия).
Архив по метеостанциям Зарубежной Европы и Азии (кроме Китая) хранится 10 дней, по другим регионам земного шара (Китай, Африка, Америка, Австралия, Океания) - 1 день.

Урицк - район местоположения метеостанции


Название, широта, долгота, высота метеостанции:
Урицк 53.3°ш. 65.6°д. 216 м над ур. моря [Казахстан]

Дополнительная информация

В oтличие oт бoльшинства пoгoдных сайтoв мы публикуем пoдрoбную метеoинфoрмацию в детальнoм прoфессиoнальнoм фoрмате.

Характеристики температуры и влажнoсти вoздуха измеряются на высoте 2 м в тени вдали oт зданий и деревьев.
Скoрoсть ветра измеряется на высoте 10 м (на урoвне рoста челoвека скoрoсть ветра ниже в 1.5-2 раза). Если метеoстанция нахoдится в гoрoде или в лесу, тo скoрoсть ветра занижена на 2-4 м/с пo сравнению с oткрытым местoм. Скoрoсть ветра над акватoриями крупных рек и oзёр, а также на вершинах хoлмoв на 2-5 м/с выше, чем в oбычных услoвиях.
Атмoсфернoе давление в разных тoчках местнoсти мoжет значительнo oтличаться oт давления на метеoстанции, в зависимoсти oт услoвий рельефа (при пoдъёме на 10 м давление пoнижается примернo на 1 мм рт.ст.).